Location: Caltech
(34.1382°N, 118.1253°W)
Time: 04:30:27
(UTC-08:00)

OAO 2 Rocket - Visible Passes

Search period start: 01 March 2015 00:00
Search period end: 11 March 2015 01:00
Orbit: 677 x 748 km, 35.0° (Epoch: 28 February)

Date Brightness Start Highest point End Pass type
(mag) Time Alt. Az. Time Alt. Az. Time Alt. Az.
01 Mar 3.3 19:34:53 10° WSW 19:40:11 81° SSE 19:40:50 68° E visible
01 Mar 6.5 21:19:49 10° W 21:19:50 10° W 21:19:50 10° W visible
02 Mar 3.5 18:37:37 10° WSW 18:42:50 66° SSE 18:46:49 18° E visible
02 Mar 4.6 20:22:25 10° W 20:25:48 40° W 20:25:48 40° W visible
03 Mar 3.3 19:25:02 10° W 19:30:20 85° N 19:31:45 50° ENE visible
03 Mar 6.2 21:10:00 10° W 21:10:45 14° W 21:10:45 14° W visible
04 Mar 3.4 18:27:41 10° WSW 18:32:56 85° SSE 18:37:40 13° E visible
04 Mar 4.1 20:12:37 10° W 20:16:40 53° WNW 20:16:40 53° WNW visible
05 Mar 3.4 19:15:14 10° W 19:20:31 81° N 19:22:33 38° E visible
05 Mar 5.9 21:00:09 10° W 21:01:33 18° W 21:01:33 18° W visible
06 Mar 3.5 18:17:52 10° W 18:23:06 83° N 18:28:26 10° E visible
06 Mar 3.6 20:02:47 10° W 20:07:26 69° W 20:07:26 69° W visible
07 Mar 3.4 19:05:26 10° W 19:10:42 85° N 19:13:20 30° E visible
07 Mar 5.5 20:50:22 10° W 20:52:20 22° W 20:52:20 22° W visible
08 Mar 3.5 19:08:05 10° W 19:13:17 81° N 19:18:36 10° E visible
08 Mar 3.4 20:52:58 10° W 20:58:11 68° SSW 20:58:15 68° SSW visible
09 Mar 3.4 19:55:37 10° W 20:00:50 82° SSW 20:04:12 23° ESE visible
09 Mar 5.3 21:40:42 10° W 21:43:12 24° WSW 21:43:12 24° WSW visible
10 Mar 4.0 20:43:11 10° W 20:48:13 47° SSW 20:49:11 42° S visible
